Regional Weather Roundup
Issued by NWS Sioux Falls, SD

Home | Current Version | Previous Version | Text Only | Print | Product List | Glossary On
Versions: 1 2 3 4 5 6 7 8 9 10 11 12 13 14 15 16 17 18 19 20 21 22 23 24 25 26 27 28 29 30 31 32 33 34 35 36 37 38 39 40 41 42 43 44 45 46 47 48 49 50
000
ASUS43 KFSD 120502
RWRFSD

WEATHER ROUNDUP FOR SE SOUTH DAKOTA/SW MINNESOTA/NW IOWA
NATIONAL WEATHER SERVICE SIOUX FALLS SD
1100 PM CST MON DEC 11 2017

NOTE: "FAIR" INDICATES FEW OR NO CLOUDS BELOW 12,000 FEET WITH NO
SIGNIFICANT WEATHER AND OR OBSTRUCTIONS TO VISIBILITY.


SDZ038>040-050-052>070-120600-
SOUTHEAST SOUTH DAKOTA

CITY           SKY/WX    TMP DP  RH WIND       PRES   REMARKS
BROOKINGS      CLEAR     14  11  87 NW8       30.33S WCI   3
CHAMBERLAIN    CLOUDY    20  19  96 CALM      30.38S
HURON          CLEAR     14  12  92 W7        30.39R WCI   4
MADISON        FAIR      14  14 100 N9        30.33R WCI   2
MITCHELL       CLEAR     19  16  88 W7        30.40S WCI  10
SIOUX FALLS    PTCLDY    17  14  88 NW7       30.34S WCI   8
WINNER         CLOUDY    33  29  85 NW5       30.37S WCI  29
YANKTON        CLEAR     18  15  88 NW9       30.38F WCI   7
$$

MNZ071-072-080-081-089-090-097-098-120600-
SOUTHWEST MINNESOTA

CITY           SKY/WX    TMP DP  RH WIND       PRES   REMARKS
FAIRMONT       CLEAR     14   9  80 NW20G29   30.26R WCI  -3
JACKSON        PTCLDY    16   9  73 MISG      30.26S
LUVERNE        CLEAR     18  12  79 N13G18    30.33S WCI   4
MARSHALL       CLEAR     13   9  84 NW10      30.34R WCI   0
MONTEVIDEO     CLEAR     12   7  79 N10       30.33S WCI  -1
PIPESTONE      CLEAR     16  10  79 N10G17    30.30S WCI   3
REDWOOD FALLS  CLEAR     13   6  74 NW15G23   30.30S WCI  -3
TRACY          CLEAR     15  11  85 NW15      30.30S WCI   0
WINDOM           N/A     14   1  57 NW22      30.27R WCI  -4
WORTHINGTON    CLEAR     14  10  84 N15       30.29R WCI  -1
$$

IAZ001>003-012>014-020>022-031-032-NEZ013-014-SDZ071-120600-
NORTHWEST IOWA

CITY           SKY/WX    TMP DP  RH WIND       PRES   REMARKS
CHEROKEE       CLEAR     19  13  80 N10       30.33R WCI   7
DENISON        CLEAR     21  14  73 N14       30.32R WCI   8
ESTHERVILLE    CLEAR     14   9  80 NW23      30.26R WCI  -5
LE MARS        CLEAR     19  14  79 N12       30.35R WCI   7
ORANGE CITY    CLEAR     19  16  86 N12       30.32R WCI   7
SHELDON        CLEAR     16  12  86 N13       30.31R WCI   2
SIOUX CITY     CLEAR     22  15  75 N15       30.36R WCI   9
SPENCER        CLEAR     16   9  74 NW13      30.29R WCI   2
STORM LAKE     CLEAR     18  10  73 N17G24    30.28R WCI   2
$$

ABBREVIATIONS USED IN REMARKS
   TC - TEMPERATURE IN CELSIUS
  WCI - WIND CHILL INDEX
   HX - HEAT INDEX
  VSB - VISIBILITY





USA.gov is the U.S. government's official web portal to all federal, state and local government web resources and services.